Date String (YYYY-MM-DD hh:mm:ss) UTC,Instrument flags,Ambient pressure (hPa),Sample flow (lpm),Bypass flow (lpm),Sample temperature (°C),Ambient temperature (°C),ASC tube jacket temperature (°C),LED temperature (°C),Box temperature (°C),Sample RH (%),Span deviation,Mass concentration (μg/m³),Mass concentration (μg/m³),Mass concentration (μg/m³)
DateTimeUTC,F1_M11,P_M11,Q1_M11,Q2_M11,T1_M11,T2_M11,T3_M11,T4_M11,T5_M11,U1_M11,ZSPAN_M11,X0_M11,X2_M11,X1_M11
2022-11-29 04:00:00,,0812.4,4.99,0.00,22.3,21.0,00.0,31.2,24.1,13.4,0000.0,0009.00,0003.37,0002.78
2022-11-29 04:01:00,,0812.4,5.01,0.00,22.3,21.0,00.0,31.2,24.1,13.4,0000.0,0008.99,0003.37,0002.79
2022-11-29 04:02:00,,0812.4,5.01,0.00,22.3,21.0,00.0,31.2,24.1,13.4,0000.0,0009.04,0003.36,0002.79
2022-11-29 04:03:00,,0812.4,5.00,0.00,22.2,21.0,00.0,31.2,24.1,13.3,0000.0,0008.62,0003.37,0002.78
2022-11-29 04:04:00,,0812.3,5.00,0.00,22.2,20.9,00.0,31.2,24.1,13.4,0000.0,0008.85,0003.37,0002.81
2022-11-29 04:05:00,,0812.3,4.99,0.00,22.2,20.9,00.0,31.2,24.1,13.5,0000.0,0009.00,0003.38,0002.84
2022-11-29 04:06:00,,0812.3,4.99,0.00,22.2,20.9,00.0,31.2,24.1,13.5,0000.0,0009.60,0003.42,0002.87
2022-11-29 04:07:00,,0812.3,5.00,0.00,22.2,20.9,00.0,31.2,24.1,13.5,0000.0,0009.49,0003.44,0002.92
2022-11-29 04:08:00,,0812.4,5.00,0.00,22.2,20.9,00.0,31.2,24.1,13.5,0000.0,0008.59,0003.46,0002.97
2022-11-29 04:09:00,,0812.4,5.00,0.00,22.2,20.9,00.0,31.2,24.1,13.5,0000.0,0008.40,0003.49,0003.02
2022-11-29 04:10:00,,0812.4,5.00,0.00,22.2,20.9,00.0,31.2,24.0,13.6,0000.0,0008.77,0003.53,0003.08
2022-11-29 04:11:00,,0812.4,5.02,0.00,22.2,20.9,00.0,31.1,24.0,13.6,0000.0,0008.88,0003.56,0003.12
2022-11-29 04:12:00,,0812.4,4.98,0.00,22.2,20.9,00.0,31.1,24.0,13.6,0000.0,0009.02,0003.62,0003.15
2022-11-29 04:13:00,,0812.4,5.00,0.00,22.1,20.9,00.0,31.1,24.0,13.7,0000.0,0009.17,0003.68,0003.17
2022-11-29 04:14:00,,0812.4,5.01,0.00,22.1,20.9,00.0,31.1,24.0,13.7,0000.0,0009.07,0003.68,0003.20
2022-11-29 04:15:00,,0812.4,5.00,0.00,22.1,20.9,00.0,31.1,24.0,13.8,0000.0,0008.41,0003.69,0003.22
2022-11-29 04:16:00,,0812.4,5.00,0.00,22.1,20.9,00.0,31.1,24.0,13.8,0000.0,0008.48,0003.73,0003.23
2022-11-29 04:17:00,,0812.4,4.99,0.00,22.1,20.9,00.0,31.1,24.0,13.9,0000.0,0007.85,0003.72,0003.24
2022-11-29 04:18:00,,0812.4,4.99,0.00,22.1,20.9,00.0,31.1,24.0,14.0,0000.0,0008.10,0003.76,0003.25
2022-11-29 04:19:00,,0812.4,5.00,0.00,22.1,20.9,00.0,31.1,24.0,14.0,0000.0,0008.10,0003.76,0003.26
2022-11-29 04:20:00,,0812.4,5.00,0.00,22.2,21.3,00.0,31.1,24.1,14.1,0000.0,0007.73,0003.79,0003.27
2022-11-29 04:21:00,,0812.4,5.01,0.00,22.2,22.1,00.0,31.0,24.3,14.0,0000.0,0007.14,0003.82,0003.29
2022-11-29 04:22:00,,0812.4,4.98,0.00,22.3,22.2,00.0,31.1,24.4,14.0,0000.0,0007.50,0003.80,0003.30
2022-11-29 04:23:00,,0812.5,5.00,0.00,22.3,21.9,00.0,31.1,24.3,14.0,0000.0,0008.00,0003.75,0003.30
2022-11-29 04:24:00,,0812.5,5.00,0.00,22.3,21.7,00.0,31.2,24.3,14.1,0000.0,0008.21,0003.72,0003.29
2022-11-29 04:25:00,,0812.5,5.00,0.00,22.3,21.5,00.0,31.2,24.2,14.2,0000.0,0008.18,0003.71,0003.29
2022-11-29 04:26:00,,0812.5,5.01,0.00,22.3,21.3,00.0,31.2,24.2,14.2,0000.0,0008.53,0003.70,0003.28
2022-11-29 04:27:00,,0812.5,5.00,0.00,22.3,21.3,00.0,31.2,24.2,14.3,0000.0,0008.76,0003.68,0003.26
2022-11-29 04:28:00,,0812.4,5.00,0.00,22.3,21.2,00.0,31.2,24.2,14.3,0000.0,0008.70,0003.65,0003.25
2022-11-29 04:29:00,,0812.4,5.00,0.00,22.3,21.1,00.0,31.2,24.2,14.3,0000.0,0008.44,0003.61,0003.23
2022-11-29 04:30:00,,0812.4,5.00,0.00,22.3,21.1,00.0,31.2,24.1,14.4,0000.0,0008.39,0003.59,0003.22
2022-11-29 04:31:00,,0812.4,5.00,0.00,22.3,21.0,00.0,31.2,24.1,14.5,0000.0,0008.35,0003.55,0003.20
2022-11-29 04:32:00,,0812.4,5.00,0.00,22.3,20.9,00.0,31.2,24.1,14.5,0000.0,0008.30,0003.53,0003.19
2022-11-29 04:33:00,,0812.4,5.00,0.00,22.2,20.9,00.0,31.2,24.1,14.5,0000.0,0008.07,0003.51,0003.17
2022-11-29 04:34:00,,0812.4,5.00,0.00,22.2,20.8,00.0,31.2,24.0,14.6,0000.0,0007.21,0003.51,0003.16
2022-11-29 04:35:00,,0812.4,5.00,0.00,22.2,20.8,00.0,31.2,24.0,14.6,0000.0,0006.59,0003.51,0003.16
2022-11-29 04:36:00,,0812.4,5.01,0.00,22.2,20.8,00.0,31.2,24.0,14.7,0000.0,0006.43,0003.49,0003.16
2022-11-29 04:37:00,,0812.4,5.00,0.00,22.2,20.8,00.0,31.2,24.0,14.7,0000.0,0006.27,0003.50,0003.17
2022-11-29 04:38:00,,0812.4,5.01,0.00,22.2,21.2,00.0,31.1,24.1,14.7,0000.0,0005.53,0003.50,0003.18
2022-11-29 04:39:00,,0812.4,5.00,0.00,22.3,22.2,00.0,31.1,24.3,14.7,0000.0,0005.52,0003.50,0003.19
2022-11-29 04:40:00,,0812.4,4.99,0.00,22.4,22.4,00.0,31.2,24.5,14.7,0000.0,0005.72,0003.51,0003.21
2022-11-29 04:41:00,,0812.4,4.99,0.00,22.4,22.0,00.0,31.2,24.4,14.7,0000.0,0005.84,0003.51,0003.23
2022-11-29 04:42:00,,0812.4,5.00,0.00,22.4,21.8,00.0,31.2,24.4,14.7,0000.0,0006.27,0003.55,0003.24
2022-11-29 04:43:00,,0812.4,5.00,0.00,22.4,21.6,00.0,31.3,24.3,14.7,0000.0,0006.40,0003.57,0003.24
2022-11-29 04:44:00,,0812.4,5.00,0.00,22.4,21.4,00.0,31.3,24.3,14.7,0000.0,0006.52,0003.59,0003.26
2022-11-29 04:45:00,,0812.4,5.00,0.00,22.4,21.3,00.0,31.3,24.2,14.8,0000.0,0006.86,0003.60,0003.28
2022-11-29 04:46:00,,0812.4,5.00,0.00,22.4,21.2,00.0,31.3,24.2,14.8,0000.0,0006.93,0003.62,0003.30
2022-11-29 04:47:00,,0812.4,5.00,0.00,22.4,21.1,00.0,31.3,24.2,14.9,0000.0,0006.84,0003.65,0003.32
2022-11-29 04:48:00,,0812.4,5.00,0.00,22.3,21.0,00.0,31.3,24.2,14.9,0000.0,0006.88,0003.65,0003.33
2022-11-29 04:49:00,,0812.4,5.00,0.00,22.3,21.0,00.0,31.3,24.2,14.9,0000.0,0007.53,0003.67,0003.34
2022-11-29 04:50:00,,0812.4,5.01,0.00,22.3,21.0,00.0,31.3,24.2,14.9,0000.0,0007.58,0003.68,0003.36
2022-11-29 04:51:00,,0812.3,5.00,0.00,22.3,21.0,00.0,31.3,24.1,14.9,0000.0,0007.49,0003.69,0003.38
2022-11-29 04:52:00,,0812.4,5.00,0.00,22.3,20.9,00.0,31.3,24.1,14.9,0000.0,0007.40,0003.70,0003.39
2022-11-29 04:53:00,,0812.4,5.00,0.00,22.3,20.9,00.0,31.3,24.1,15.0,0000.0,0007.10,0003.68,0003.41
2022-11-29 04:54:00,,0812.4,4.99,0.00,22.3,20.9,00.0,31.3,24.1,15.0,0000.0,0006.98,0003.69,0003.42
2022-11-29 04:55:00,,0812.4,5.00,0.00,22.3,20.9,00.0,31.3,24.1,15.1,0000.0,0006.85,0003.69,0003.43
2022-11-29 04:56:00,,0812.4,5.01,0.00,22.2,20.9,00.0,31.3,24.1,15.1,0000.0,0006.40,0003.67,0003.43
2022-11-29 04:57:00,,0812.4,5.01,0.00,22.2,20.8,00.0,31.3,24.1,15.1,0000.0,0006.36,0003.67,0003.43
2022-11-29 04:58:00,,0812.4,5.00,0.00,22.2,20.8,00.0,31.2,24.1,15.2,0000.0,0006.20,0003.65,0003.42
2022-11-29 04:59:00,,0812.4,5.00,0.00,22.2,21.0,00.0,31.2,24.1,15.2,0000.0,0005.94,0003.67,0003.42
